User: anonymous   Login
Location: Arbon
(43.0005°N, 0.7472°E)
Time: 07:30:34
(UTC+00:00)
Language:

Cosmos 1975 Rocket - Orbit

View from above orbital plane
View from above orbital plane
View from above satellite
View from above satellite

Ground track
Ground track

The orbit data is extracted from the following two-line orbital elements,

1 19574U 88093B   20295.91792005  .00000097  00000-0  87873-5 0  9999
2 19574  82.5307  81.7889 0022706  47.8314  65.9567 14.83340657730704
Epoch (UTC): 21 October 2020 22:01:48
Eccentricity: 0.0022706
inclination: 82.5307°
perigee height: 603 km
apogee height: 634 km
right ascension of ascending node: 81.7889°
argument of perigee: 47.8314°
revolutions per day: 14.83340657
mean anomaly at epoch: 65.9567°
orbit number at epoch: 73070

The dashed part of the orbit path shows where the satellite is in the earth's shadow,  

DLR